Vertical_Velocity
-2 -1 -2 -0 1 -1 -2 -6 -25 -28 7 22 -5 2 -2 -0 0 -8 -4 -2 -0 -5 -7 -7 -2 -0 -1 -5 -2 -1 -3 -1 1 3 0 3 -3 -2
-2 1 -0 -2 1 -1 -4 -2 -1 -19 -53 -18 6 -9 -2 5 2 3 -1 0 -1 -2 -4 -4 -8 -7 -4 -1 -2 -2 1 -2 0 1 0 -1 -2 -2
-2 -1 -1 -4 -2 -2 -2 -3 -2 -4 -21 0 -13 -5 -4 -10 -3 1 4 2 2 1 2 -2 -7 -4 -5 -8 -4 -2 -1 0 -1 -2 1 3 2 -3
-1 -1 -1 -1 2 -3 -5 -3 -5 6 -8 -25 -3 5 -2 -2 -5 -2 -2 -1 -5 5 -3 -6 2 -5 -1 -4 -3 -2 -2 1 4 -2 -4 1 4 4
-2 -2 -2 -3 1 -3 -2 -6 -5 -3 2 -4 -14 -1 -4 -0 0 1 -2 2 6 4 -5 -2 -6 -0 4 -2 -4 0 -2 -0 2 -0 2 -1 -0 -1
-0 -2 -3 -5 -5 -4 -4 -3 -3 -3 -1 -3 -2 -7 -7 7 -3 -14 4 2 3 -4 1 -4 -2 -1 -1 -0 2 1 0 3 -0 -0 -1 -1 -3 -2
0 -3 -3 -3 -7 -8 -14 -5 -1 -2 -1 -1 -3 -5 -1 2 -6 6 -5 -2 12 -12 7 -3 2 -4 -2 -1 0 0 1 0 -0 0 -1 -1 -2 -4
-4 -1 -2 -3 -1 -3 1 1 1 -9 -1 -5 -3 -4 -1 -4 1 -1 -3 1 11 -5 -0 5 -9 3 -2 -3 -0 -3 -3 -2 -1 -1 -0 0 -1 -2
-2 -3 -3 -4 -4 -3 4 4 5 6 1 -7 -6 0 -0 -3 -1 3 2 -1 2 3 -12 19 -7 2 -4 1 -3 -3 -2 -1 -2 -3 -0 -1 -2 -1
-6 -6 -7 -2 -2 -4 -5 1 1 3 -0 2 -2 1 -1 3 -2 -1 0 1 2 -2 -11 10 -7 -0 -0 -3 -6 -5 -3 -0 1 1 -3 2 -0 -2
-3 0 -7 -5 1 -1 -8 -2 3 -1 0 -3 -3 -3 -2 -2 -2 4 4 3 8 -3 -9 4 -5 3 -0 -4 -4 -6 2 2 2 4 2 -1 -1 -1
-8 -0 0 -3 -4 -3 -5 -2 -0 -2 -1 3 1 0 -1 1 1 -2 -1 1 -1 3 -10 4 1 -3 3 -6 -6 2 -1 2 2 -0 -1 1 0 -1
-3 -1 -1 1 -0 -1 -1 -2 -4 -1 0 -2 1 2 1 0 0 -1 -3 -1 3 -1 -1 1 -1 0 0 6 -8 3 2 -2 -1 0 -1 1 3 2
-4 -3 -2 -2 -0 -1 1 0 -2 -3 -2 -0 1 0 1 1 0 1 -0 -3 -3 0 2 -1 -0 0 2 -1 -1 1 -0 -3 5 4 1 3 3 3
-0 -2 -4 -2 -0 -0 -2 0 1 -0 -0 -1 -0 0 0 1 0 -1 -1 -1 -4 1 -1 -0 1 -3 2 -1 -1 -6 -0 2 6 5 3 5 5 5
2 4 -3 -4 -2 0 0 -3 -2 -1 1 1 -0 -1 -1 1 1 1 2 3 3 -0 -0 0 -0 0 -0 2 -1 -0 -3 -5 2 2 3 2 3 -0
0 -2 -1 -2 -1 -1 -3 0 -0 -1 -1 -1 -1 -1 -0 -0 1 3 1 1 -1 1 1 1 -0 -0 1 -0 -2 2 1 0 4 5 3 3 4 5
1 -0 -0 -1 1 0 -0 -1 -0 -1 -1 -0 -1 0 0 1 1 0 0 0 1 -1 0 0 -0 -1 0 -2 -0 3 -1 4 10 7 -0 2 2 0
-0 -2 -1 -0 -1 -0 -1 -1 -0 -1 -1 0 1 -0 -0 1 -0 -1 0 0 0 1 -1 -1 -0 1 -0 0 1 2 1 -1 3 10 2 5 5 2
-2 -0 -1 -0 -1 -0 -1 -0 -1 -0 -1 -0 -1 -0 0 0 -0 -0 -0 0 1 2 1 -0 1 2 -1 -3 -1 2 5 -2 1 5 8 -0 11 3
-1 -1 -0 -1 -1 -1 0 -1 1 1 2 1 0 -0 -0 0 0 1 0 1 1 -0 2 1 0 2 1 -0 -3 -0 3 5 5 -3 -4 10 10 -2
-0 -1 -1 -0 0 -0 -1 -0 -0 1 -0 -0 0 0 1 0 0 -0 1 1 1 0 1 2 1 0 1 0 0 -0 1 3 5 8 1 2 10 6
-1 0 -0 0 -1 -1 -2 -1 -1 0 1 -0 0 -0 0 -0 -2 -0 -0 -0 0 1 1 1 2 1 1 1 -2 -2 -3 3 1 2 11 -1 12 11
Height
5616 5607 5598 5589 5580 5569 5557 5544 5530 5524 5531 5523 5501 5484 5465 5448 5434 5417 5405 5391 5381 5371 5362 5355 5349 5345 5340 5337 5336 5334 5335 5335 5335 5337 5341 5346 5349 5358
5599 5591 5581 5572 5562 5550 5537 5523 5506 5491 5487 5491 5477 5455 5438 5414 5397 5380 5366 5356 5349 5343 5334 5327 5321 5316 5312 5310 5306 5304 5303 5304 5304 5306 5310 5313 5320 5328
5583 5574 5564 5553 5541 5528 5514 5499 5482 5459 5442 5455 5436 5421 5404 5383 5370 5354 5340 5327 5319 5318 5312 5303 5295 5289 5284 5283 5280 5278 5277 5277 5278 5279 5282 5287 5291 5300
5567 5556 5544 5533 5519 5504 5488 5472 5455 5435 5407 5394 5401 5382 5366 5356 5344 5335 5326 5315 5299 5291 5283 5276 5269 5264 5262 5258 5255 5253 5250 5249 5252 5255 5258 5263 5266 5274
5549 5537 5524 5510 5496 5479 5461 5442 5423 5404 5382 5357 5353 5349 5339 5326 5320 5314 5306 5297 5284 5269 5261 5252 5246 5242 5238 5235 5232 5230 5228 5228 5230 5231 5234 5238 5243 5250
5530 5516 5501 5484 5467 5449 5430 5410 5389 5368 5351 5336 5325 5319 5311 5305 5293 5284 5283 5272 5262 5250 5243 5233 5229 5224 5219 5215 5213 5211 5210 5209 5208 5208 5210 5213 5218 5227
5510 5494 5477 5458 5438 5418 5395 5375 5354 5338 5326 5312 5301 5291 5283 5277 5269 5264 5257 5253 5245 5235 5229 5223 5216 5210 5205 5199 5197 5195 5193 5192 5190 5190 5190 5192 5195 5203
5488 5471 5451 5431 5413 5392 5368 5348 5330 5312 5300 5285 5275 5266 5261 5253 5250 5246 5242 5238 5237 5225 5215 5215 5203 5201 5192 5187 5185 5183 5182 5181 5180 5178 5176 5175 5177 5182
5463 5445 5427 5404 5382 5363 5348 5331 5315 5299 5281 5268 5260 5253 5246 5243 5240 5237 5232 5226 5223 5217 5205 5206 5195 5192 5183 5180 5176 5176 5175 5173 5170 5167 5164 5162 5161 5164
5439 5417 5396 5377 5357 5340 5325 5313 5300 5285 5272 5262 5253 5246 5241 5236 5231 5226 5222 5218 5213 5207 5198 5198 5190 5184 5177 5172 5172 5170 5168 5166 5163 5158 5153 5151 5148 5148
5415 5392 5368 5352 5337 5321 5309 5299 5287 5276 5267 5256 5248 5241 5235 5229 5223 5219 5216 5213 5209 5201 5193 5190 5184 5179 5173 5168 5168 5166 5164 5160 5155 5148 5142 5137 5133 5132
5397 5371 5351 5331 5318 5307 5296 5288 5280 5270 5262 5255 5248 5240 5232 5226 5221 5215 5211 5207 5202 5196 5186 5183 5177 5174 5170 5165 5164 5163 5160 5156 5150 5141 5133 5127 5122 5119
5369 5353 5335 5318 5305 5295 5287 5280 5272 5266 5259 5251 5245 5238 5231 5225 5220 5214 5208 5202 5198 5190 5182 5176 5172 5169 5167 5164 5160 5161 5159 5153 5147 5141 5134 5126 5120 5116
5348 5333 5319 5304 5293 5286 5280 5275 5269 5262 5256 5249 5243 5236 5231 5225 5220 5214 5208 5199 5192 5186 5179 5172 5169 5166 5162 5162 5161 5161 5158 5154 5149 5145 5139 5134 5128 5124
5333 5320 5308 5297 5289 5282 5276 5272 5266 5260 5254 5248 5242 5237 5231 5226 5220 5214 5207 5200 5191 5186 5179 5174 5169 5164 5160 5160 5160 5161 5159 5157 5153 5149 5145 5142 5142 5142
5324 5313 5303 5294 5286 5281 5276 5269 5264 5258 5253 5248 5242 5237 5231 5226 5221 5215 5209 5203 5195 5188 5182 5177 5171 5167 5165 5164 5164 5164 5163 5159 5156 5151 5147 5147 5151 5155
5317 5307 5299 5292 5286 5279 5272 5268 5262 5257 5252 5247 5242 5237 5232 5226 5221 5216 5210 5204 5197 5192 5186 5181 5176 5173 5172 5170 5169 5169 5167 5163 5159 5156 5154 5153 5156 5162
5310 5302 5296 5291 5285 5278 5273 5267 5262 5256 5251 5246 5241 5236 5232 5227 5222 5217 5212 5206 5201 5196 5191 5186 5181 5180 5178 5176 5175 5175 5172 5168 5168 5164 5163 5161 5162 5165
5306 5300 5294 5288 5282 5277 5272 5266 5261 5255 5250 5245 5239 5235 5231 5226 5222 5217 5213 5209 5204 5200 5196 5191 5188 5187 5185 5183 5183 5181 5179 5176 5173 5174 5173 5172 5172 5172
5303 5298 5292 5287 5281 5275 5270 5264 5258 5252 5247 5242 5237 5233 5229 5225 5221 5218 5214 5210 5207 5203 5200 5197 5194 5192 5191 5190 5189 5189 5187 5185 5183 5181 5183 5183 5185 5183
5301 5295 5290 5284 5278 5272 5267 5262 5257 5251 5246 5240 5235 5231 5227 5223 5220 5217 5214 5211 5208 5205 5202 5200 5199 5198 5197 5196 5196 5196 5195 5195 5194 5191 5191 5193 5195 5194
5300 5295 5289 5282 5277 5271 5265 5260 5254 5249 5244 5239 5234 5229 5226 5223 5219 5216 5213 5210 5208 5206 5204 5202 5202 5201 5201 5201 5201 5201 5201 5201 5202 5201 5202 5202 5202 5206
5298 5293 5287 5281 5275 5269 5262 5256 5250 5246 5242 5238 5233 5229 5225 5222 5219 5216 5213 5210 5208 5206 5206 5204 5203 5203 5204 5204 5205 5206 5206 5207 5208 5209 5211 5212 5212 5216